GW5989 Weather Reports


Display with metric or nautical units.
time (UTC)temp
F
wind
direction
speed
MPH
gust
MPH
rain 1hr
in
rain 24hr
in
rain mn
in
humidity
%
barometer
mb
20260502130507 54 286 3.0 8.0 0.00 1.07 0.00 85 1022.1
20260502123504 51 298 3.0 7.0 0.00 1.07 0.00 90 1021.7
20260502123008 51 298 2.0 6.0 0.00 1.08 0.00 90 1021.6
20260502122505 50 290 2.0 4.0 0.00 1.10 0.00 91 1021.5
20260502122007 50 241 2.0 4.0 0.00 1.14 0.00 91 1021.3
20260502121522 50 292 1.0 3.0 0.00 1.16 0.00 91 1021.3
20260502121004 49 203 0.0 2.0 0.00 1.17 0.00 91 1021.2
20260502120508 49 294 0.0 0.0 0.00 1.19 0.00 91 1021.1
20260502115507 49 294 0.0 2.0 0.00 1.24 0.00 90 1021.0
20260502115010 49 294 0.0 2.0 0.00 1.25 0.00 90 1021.0
20260502114524 49 294 0.0 1.0 0.00 1.27 0.00 90 1020.9
20260502114009 49 294 0.0 2.0 0.00 1.29 0.00 90 1020.8
20260502113502 49 294 0.0 2.0 0.00 1.31 0.00 90 1020.8
20260502113013 49 294 0.0 2.0 0.00 1.32 0.00 90 1020.8
20260502112506 49 294 0.0 2.0 0.00 1.33 0.00 89 1020.7
20260502112005 49 294 0.0 2.0 0.00 1.34 0.00 88 1020.6
20260502111512 50 294 0.0 2.0 0.00 1.34 0.00 87 1020.6
20260502111006 50 294 0.0 2.0 0.00 1.35 0.00 87 1020.6
20260502110507 51 294 0.0 2.0 0.00 1.35 0.00 86 1020.6
20260502110018 51 294 1.0 3.0 0.00 1.36 0.00 85 1020.5
20260502105504 52 349 0.0 4.0 0.00 1.38 0.00 85 1020.5
20260502105008 52 349 2.0 4.0 0.00 1.39 0.00 85 1020.4
20260502104537 52 328 1.0 4.0 0.00 1.41 0.00 85 1020.3
20260502104008 52 328 2.0 4.0 0.00 1.44 0.00 85 1020.3
20260502103509 52 360 1.0 4.0 0.00 1.45 0.00 85 1020.1
20260502103022 52 320 1.0 4.0 0.00 1.47 0.00 85 1020.0
20260502102508 52 11 1.0 4.0 0.00 1.48 0.00 85 1020.0
20260502102005 52 9 2.0 5.0 0.00 1.49 0.00 85 1019.7
20260502101512 52 312 1.0 5.0 0.00 1.51 0.00 85 1019.7
20260502101005 52 360 2.0 4.0 0.00 1.52 0.00 85 1019.6
20260502100508 52 300 2.0 4.0 0.00 1.52 0.00 85 1019.6
20260502091529 52 20 3.0 6.0 0.00 1.60 0.00 85 1018.7
20260502091004 52 30 3.0 6.0 0.00 1.62 0.00 85 1018.7
20260502090505 53 309 3.0 8.0 0.00 1.64 0.00 85 1018.6
20260502070513 53 50 2.0 6.0 0.00 1.95 0.00 84 1018.2
20260502070025 54 5 3.0 6.0 0.00 1.95 0.00 85 1018.2
20260502065510 54 24 3.0 8.0 0.00 1.95 0.00 85 1018.3
20260502065015 54 17 3.0 8.0 0.00 1.96 0.00 85 1018.3
20260502064004 54 350 3.0 8.0 0.00 1.98 0.00 85 1018.3
20260502063507 54 343 4.0 8.0 0.00 1.99 0.00 85 1018.4
20260502062509 54 329 3.0 6.0 0.00 2.01 0.00 85 1018.6
20260502062010 54 320 3.0 6.0 0.00 2.03 0.00 85 1018.7
20260502060508 54 352 3.0 5.0 0.00 2.03 0.00 86 1018.6
20260502055509 54 321 1.0 4.0 0.00 2.03 0.00 86 1018.7
20260502055011 54 352 2.0 4.0 0.00 2.03 0.00 86 1018.7
20260502054525 54 340 2.0 6.0 0.00 2.03 0.00 86 1018.7
20260502054016 54 15 2.0 6.0 0.00 2.03 0.00 86 1018.6
20260502053509 54 318 1.0 5.0 0.00 2.03 0.00 86 1018.6
20260502053016 54 17 3.0 5.0 0.00 2.03 0.00 86 1018.5
20260502052507 54 9 2.0 5.0 0.00 2.03 0.00 86 1018.5
20260502052009 54 352 2.0 5.0 0.00 2.03 0.00 86 1018.5
20260502051501 54 22 2.0 4.0 0.00 2.03 0.00 86 1018.6
20260502051002 54 344 2.0 4.0 0.00 2.03 0.00 85 1018.5
20260502050501 54 34 2.0 4.0 0.00 2.03 0.00 85 1018.5
20260502045502 55 17 2.0 6.0 0.00 2.03 2.03 84 1018.4
20260502045003 55 28 3.0 8.0 0.00 2.03 2.03 84 1018.4
20260502044510 55 26 3.0 8.0 0.00 2.03 2.03 83 1018.5
20260502044005 55 16 3.0 8.0 0.00 2.03 2.03 83 1018.6
20260502043504 55 340 2.0 8.0 0.00 2.03 2.03 83 1018.6
20260502042507 55 27 3.0 9.0 0.00 2.03 2.03 83 1018.5
20260502042008 55 29 3.0 9.0 0.00 2.03 2.03 82 1018.5
20260502041517 55 46 4.0 11.0 0.00 2.03 2.03 82 1018.5
20260502041005 55 28 6.0 11.0 0.00 2.03 2.03 82 1018.5
20260502035501 55 30 3.0 10.0 0.00 2.03 2.03 82 1018.4
20260502035001 55 5 5.0 13.0 0.00 2.03 2.03 82 1018.5
20260502034514 55 21 5.0 15.0 0.00 2.03 2.03 82 1018.5
20260502034001 55 59 5.0 15.0 0.00 2.03 2.03 82 1018.5
20260502033504 55 15 5.0 12.0 0.00 2.03 2.03 83 1018.4
20260502032505 55 5 5.0 13.0 0.00 2.04 2.03 83 1018.3
20260502032006 55 34 5.0 13.0 0.00 2.04 2.03 83 1018.2
20260502031518 55 360 7.0 13.0 0.00 2.04 2.03 83 1018.2
20260502031005 55 22 6.0 13.0 0.00 2.04 2.03 84 1018.1
20260502030506 55 59 6.0 13.0 0.00 2.04 2.03 84 1018.1
20260502030018 55 24 6.0 13.0 0.00 2.04 2.03 84 1018.1
20260502025508 55 26 7.0 13.0 0.00 2.04 2.03 84 1017.9
20260502025001 55 28 5.0 10.0 0.00 2.04 2.03 84 1017.8
20260502024515 55 53 5.0 12.0 0.00 2.04 2.03 84 1017.7
20260502024002 55 352 7.0 13.0 0.00 2.04 2.03 84 1017.6
20260502023502 55 57 7.0 13.0 0.00 2.04 2.03 84 1017.6
20260502022504 55 71 6.0 12.0 0.00 2.04 2.03 84 1017.3
20260502022006 55 50 5.0 13.0 0.00 2.04 2.03 85 1017.3
20260502021005 55 63 5.0 12.0 0.00 2.04 2.03 86 1017.2
20260502020505 55 48 6.0 12.0 0.00 2.04 2.03 86 1017.2
20260502020022 55 47 5.0 13.0 0.00 2.04 2.03 87 1017.1
20260502015505 55 62 5.0 13.0 0.00 2.04 2.03 87 1016.9
20260502015007 55 350 6.0 11.0 0.00 2.04 2.03 87 1016.8
20260502014520 55 360 3.0 13.0 0.00 2.04 2.03 88 1016.7
20260502014001 55 311 6.0 13.0 0.00 2.04 2.03 88 1016.5
20260502013501 55 352 4.0 11.0 0.00 2.04 2.03 88 1016.5
20260502013007 55 40 5.0 11.0 0.00 2.04 2.03 88 1016.4
20260502012504 55 352 6.0 12.0 0.00 2.04 2.03 88 1016.4
20260502012001 55 30 6.0 12.0 0.00 2.04 2.03 88 1016.3
20260502011534 55 44 5.0 12.0 0.00 2.04 2.03 88 1016.2
20260502011005 55 22 4.0 12.0 0.00 2.04 2.03 88 1016.3
20260502010505 55 41 4.0 11.0 0.00 2.04 2.03 89 1016.2
20260502005505 55 352 6.0 13.0 0.00 2.04 2.03 89 1016.1
20260502005007 56 346 5.0 13.0 0.00 2.04 2.03 89 1016.0
20260502004522 55 344 4.0 12.0 0.00 2.04 2.03 89 1015.9
20260502004007 56 314 5.0 10.0 0.00 2.04 2.03 89 1015.8
20260502003508 56 346 5.0 13.0 0.00 2.04 2.03 89 1015.6
20260502003026 56 360 6.0 13.0 0.00 2.04 2.03 89 1015.2
20260502002502 56 43 6.0 18.0 0.00 2.04 2.03 89 1015.0
20260502002003 56 60 9.0 18.0 0.00 2.04 2.03 89 1015.1
20260502001515 56 48 9.0 18.0 0.00 2.04 2.03 89 1015.0
20260502001003 56 43 9.0 15.0 0.00 2.04 2.03 89 1015.1
20260502000503 56 29 7.0 15.0 0.00 2.04 2.03 89 1015.0
20260502000013 56 17 10.0 15.0 0.00 2.04 2.03 89 1014.9
20260501235509 56 41 9.0 16.0 0.00 2.04 2.03 89 1014.7
20260501235034 56 18 7.0 16.0 0.00 2.04 2.03 89 1014.6
20260501234524 56 360 7.0 16.0 0.00 2.04 2.03 89 1014.7
20260501234006 56 29 8.0 15.0 0.01 2.04 2.03 89 1014.9
20260501233506 56 13 9.0 14.0 0.01 2.04 2.03 89 1015.0
20260501233020 57 32 9.0 14.0 0.01 2.04 2.03 89 1014.9
20260501232511 57 28 9.0 14.0 0.01 2.04 2.03 89 1014.9
20260501232009 57 5 7.0 14.0 0.01 2.04 2.03 89 1015.0
20260501231004 57 9 7.0 15.0 0.02 2.04 2.03 89 1014.7
20260501230506 57 346 8.0 15.0 0.02 2.04 2.03 89 1014.6
20260501225505 57 52 4.0 14.0 0.04 2.04 2.03 90 1014.5
20260501225014 57 22 5.0 14.0 0.07 2.04 2.03 90 1014.4
20260501224006 57 11 8.0 16.0 0.09 2.03 2.02 90 1014.2
20260501223505 57 334 8.0 15.0 0.10 2.03 2.02 90 1014.1
20260501223022 57 24 7.0 13.0 0.11 2.03 2.02 90 1013.9
20260501222506 58 24 3.0 11.0 0.12 2.03 2.02 91 1014.3
20260501222010 57 329 6.0 16.0 0.14 2.03 2.02 91 1014.1
20260501221522 58 5 6.0 16.0 0.15 2.02 2.01 91 1014.1
20260501221006 58 29 7.0 17.0 0.17 2.02 2.01 91 1014.0
20260501220512 58 330 6.0 14.0 0.19 2.02 2.01 91 1013.9
20260501220010 58 352 6.0 13.0 0.21 2.01 2.00 91 1013.9
20260501215506 58 21 7.0 14.0 0.24 2.00 1.99 91 1014.0
20260501215008 58 39 5.0 14.0 0.23 1.97 1.96 91 1014.0
20260501214008 58 321 4.0 12.0 0.25 1.94 1.93 90 1014.3
20260501213507 58 12 4.0 11.0 0.27 1.93 1.92 91 1014.0
20260501213028 58 46 4.0 13.0 0.30 1.92 1.91 91 1013.7
20260501212507 58 337 5.0 17.0 0.33 1.91 1.90 91 1013.4
20260501212003 58 292 8.0 14.0 0.32 1.89 1.88 91 1013.5
20260501211504 58 28 5.0 14.0 0.30 1.87 1.86 91 1013.2
20260501211006 58 345 6.0 17.0 0.28 1.85 1.84 91 1013.3
20260501210502 58 115 6.0 17.0 0.28 1.83 1.82 91 1013.4
20260501210006 58 298 5.0 16.0 0.25 1.80 1.79 91 1012.8
20260501205504 58 309 4.0 13.0 0.21 1.76 1.75 91 1012.7
20260501205003 58 352 6.0 13.0 0.19 1.74 1.73 91 1012.4
20260501204512 58 352 6.0 12.0 0.17 1.72 1.71 91 1011.9
20260501204005 58 28 8.0 12.0 0.14 1.69 1.68 91 1011.9
20260501203504 58 309 5.0 12.0 0.11 1.66 1.65 90 1011.9
20260501203019 59 34 6.0 12.0 0.08 1.62 1.61 90 1012.0
20260501202508 59 30 4.0 12.0 0.04 1.58 1.57 90 1011.9
20260501202007 59 360 6.0 13.0 0.05 1.57 1.56 90 1012.1
20260501201522 59 24 8.0 18.0 0.07 1.57 1.56 90 1011.4
20260501201006 59 27 11.0 18.0 0.07 1.57 1.56 90 1010.8
20260501200506 59 47 9.0 15.0 0.05 1.55 1.54 90 1011.1
20260501200007 59 15 9.0 14.0 0.05 1.55 1.54 89 1011.7
20260501195503 60 352 7.0 14.0 0.05 1.55 1.54 90 1012.0
20260501195003 60 38 7.0 14.0 0.05 1.55 1.54 90 1012.2
20260501194004 60 9 5.0 11.0 0.05 1.55 1.54 91 1012.3
20260501193503 59 59 4.0 11.0 0.05 1.55 1.54 90 1012.7
20260501193032 59 314 7.0 11.0 0.05 1.54 1.53 90 1013.7
20260501192504 59 313 5.0 11.0 0.06 1.54 1.53 90 1013.4
20260501192008 59 56 6.0 13.0 0.06 1.52 1.51 90 1013.1
20260501191529 59 317 6.0 13.0 0.06 1.50 1.49 90 1013.8
20260501191011 59 292 4.0 12.0 0.09 1.51 1.49 91 1013.8
20260501190514 59 340 7.0 16.0 0.13 1.54 1.49 91 1012.8
20260501190045 59 323 6.0 16.0 0.15 1.67 1.49 91 1012.1
20260501185502 59 5 8.0 16.0 0.18 1.67 1.49 91 1012.0
20260501185004 59 37 7.0 16.0 0.19 1.67 1.49 92 1011.7
20260501184507 59 360 6.0 14.0 0.20 1.67 1.49 92 1011.8
20260501184006 59 54 7.0 14.0 0.21 1.67 1.49 92 1011.9
20260501183505 59 51 7.0 14.0 0.22 1.67 1.49 92 1012.1
20260501183021 59 336 6.0 12.0 0.22 1.66 1.48 92 1012.7
20260501182503 59 360 6.0 13.0 0.21 1.65 1.47 92 1012.6
20260501182004 58 43 7.0 13.0 0.19 1.63 1.45 92 1013.0
20260501181517 59 311 8.0 13.0 0.17 1.61 1.43 92 1014.1
20260501181004 59 292 8.0 13.0 0.14 1.58 1.40 92 1014.4
20260501180509 59 315 5.0 13.0 0.10 1.54 1.36 92 1014.2
20260501180019 59 304 8.0 13.0 0.08 1.52 1.34 91 1014.1
20260501175507 59 324 5.0 13.0 0.05 1.49 1.31 92 1014.1
20260501175008 59 315 5.0 12.0 0.04 1.48 1.30 91 1014.0
20260501174527 59 327 5.0 12.0 0.03 1.47 1.29 91 1013.4
20260501174003 59 344 6.0 13.0 0.02 1.46 1.28 91 1012.5
20260501173503 59 27 7.0 13.0 0.01 1.45 1.27 91 1011.6
20260501173010 59 352 8.0 15.0 0.00 1.44 1.26 91 1012.5
20260501172505 59 46 8.0 15.0 0.00 1.44 1.26 91 1012.9
20260501172005 59 5 5.0 12.0 0.00 1.44 1.26 91 1013.2
20260501171004 59 57 8.0 15.0 0.00 1.44 1.26 91 1013.1
20260501170509 59 22 8.0 14.0 0.00 1.44 1.26 91 1012.9
20260501170020 60 24 7.0 12.0 0.00 1.44 1.26 92 1012.7
20260501165509 60 37 5.0 16.0 0.00 1.44 1.26 92 1012.5
20260501165007 60 51 9.0 16.0 0.02 1.44 1.26 92 1012.1
20260501164529 60 52 6.0 14.0 0.03 1.44 1.26 92 1012.2
20260501164007 60 62 10.0 14.0 0.05 1.44 1.26 92 1012.3
20260501163510 60 31 5.0 13.0 0.06 1.44 1.26 92 1012.6
20260501163009 60 48 8.0 14.0 0.06 1.44 1.26 92 1012.3
20260501162504 60 71 9.0 14.0 0.07 1.44 1.26 92 1012.5
20260501162004 60 60 7.0 15.0 0.07 1.44 1.26 92 1012.8
20260501161518 60 32 7.0 15.0 0.07 1.44 1.26 92 1012.7
20260501161004 60 34 6.0 16.0 0.07 1.44 1.26 93 1012.7
20260501160505 59 17 6.0 22.0 0.07 1.44 1.26 93 1012.0
20260501160016 59 63 10.0 25.0 0.07 1.44 1.26 92 1011.3
20260501155508 59 55 15.0 25.0 0.07 1.44 1.26 92 1010.3
20260501155008 59 90 16.0 21.0 0.05 1.42 1.24 92 1011.0
20260501154526 59 75 11.0 16.0 0.04 1.41 1.23 92 1012.5
20260501154007 59 25 6.0 10.0 0.02 1.39 1.21 92 1013.6
20260501153508 59 38 4.0 11.0 0.02 1.38 1.20 92 1014.1
20260501153022 59 284 7.0 13.0 0.03 1.38 1.20 92 1014.5
20260501152512 59 65 6.0 13.0 0.03 1.37 1.19 92 1013.6
20260501152003 59 39 8.0 12.0 0.05 1.37 1.19 92 1013.4
20260501151510 59 13 6.0 12.0 0.06 1.37 1.19 92 1013.5
20260501151007 59 349 5.0 12.0 0.08 1.37 1.19 92 1013.7
20260501150504 60 11 6.0 15.0 0.10 1.37 1.19 92 1013.7
20260501150017 60 62 6.0 15.0 0.11 1.37 1.19 93 1013.7
20260501145508 60 40 6.0 12.0 0.13 1.37 1.19 93 1013.7
20260501145005 60 50 6.0 12.0 0.14 1.37 1.19 93 1014.2
20260501144519 60 17 4.0 12.0 0.16 1.37 1.19 93 1014.4
20260501144008 59 313 4.0 19.0 0.17 1.37 1.19 93 1014.4
20260501143506 59 333 5.0 21.0 0.18 1.36 1.17 93 1013.3
20260501143006 59 57 16.0 21.0 0.19 1.35 1.16 93 1010.7
20260501142504 59 53 6.0 18.0 0.20 1.34 1.16 93 1014.0